Weather in Deshulan

Russia / Zabaykalsky Krai     50°58′39″N   111°46′06″E
temp.,
°C
wind,
m/s
gust,
m/s
humid.,
%
clouds,
%
prec.,
mm/h
press.,
hPa
HPBL,
m
22 may, sun
sun2200:00+14w225018 0.1 100430
03:00+11wsw4783100 0.4 1007168
06:00+9w7128330 1.2 1009759
09:00+12wnw711620 1.2 10091056
12:00+18wnw9123378 0.0 10062060
15:00+20nw9133269 0.0 10052747
18:00+20wnw9133342 0.0 10042648
21:00+15nw374594 0.0 1005210
23 may, mon
mon2300:00+11ssw225734 0.0 100516
03:00+8sw116797 0.0 100515
06:00+9w2272100 0.1 100418
09:00+14nw0454100 0.1 1004753
12:00+17wnw7123688 0.4 10032602
15:00+19wnw1014205 0.4 10033175
18:00+16nnw812332 0.0 10062434
21:00+10nne58599 0.1 1011415
24 may, tue
tue2400:00+6nw22795 0.0 101521
03:00+5wnw1182100 0.0 101830
06:00+6w3487100 0.7 1019205
09:00+11nnw3561100 0.7 1021925
12:00+16n573598 0.3 10202530
15:00+19nne472597 0.3 10193256
18:00+20nne572158 0.0 10183225
21:00+14n22371 0.0 102011
25 may, wed
wed2500:00+9wsw22456 0.0 102213
03:00+7sw225112 0.0 102412
06:00+6sw22550 0.0 102521
09:00+15wsw34360 0.0 1023475
12:00+21wnw56200 0.0 10192191
15:00+24wnw45150 0.0 10162674
18:00+24nw46140 0.0 10132780
21:00+17nnw11297 0.0 101411
26 may, thu
thu2600:00+11sw22350 0.0 101519
03:00+9sw22435 0.0 101417
06:00+8sw2245100 0.0 101428
09:00+15sw3534100 0.0 1011309
12:00+22wsw4620100 0.0 10061417
15:00+26wsw68164 0.0 10023435
18:00+26wnw6719100 0.0 9993360
21:00+19wnw4932100 0.0 999151